Hourly Weather Barra Bonita

Today, 29 September, Tuesday

Time Temperature Precipitation Wind Pressure Humidity
00:00 +24°C° 0.1 mm 2 mps 721 mmHg 87%
01:00 +23°C° 0 mm 2 mps 721 mmHg 87%
02:00 +23°C° 0 mm 2 mps 720 mmHg 87%
03:00 +23°C° 0 mm 2 mps 720 mmHg 86%
04:00 +22°C° 0 mm 3 mps 720 mmHg 87%
05:00 +21°C° 0 mm 3 mps 721 mmHg 88%
06:00 +21°C° 0 mm 4 mps 721 mmHg 88%
07:00 +23°C° 0 mm 4 mps 722 mmHg 81%
08:00 +26°C° 0 mm 5 mps 722 mmHg 73%
09:00 +28°C° 0 mm 5 mps 723 mmHg 66%
10:00 +30°C° 0 mm 4 mps 723 mmHg 58%
11:00 +33°C° 0 mm 4 mps 723 mmHg 50%
12:00 +35°C° 0 mm 4 mps 723 mmHg 43%
13:00 +36°C° 0 mm 4 mps 722 mmHg 40%
14:00 +37°C° 0 mm 3 mps 722 mmHg 37%
15:00 +38°C° 0 mm 3 mps 721 mmHg 34%
16:00 +36°C° 0 mm 3 mps 721 mmHg 39%
17:00 +35°C° 0 mm 3 mps 721 mmHg 44%
18:00 +33°C° 0 mm 3 mps 720 mmHg 49%
19:00 +30°C° 0 mm 4 mps 721 mmHg 56%
20:00 +28°C° 0 mm 5 mps 721 mmHg 63%
21:00 +26°C° 0 mm 5 mps 722 mmHg 70%
22:00 +25°C° 0 mm 5 mps 722 mmHg 72%
23:00 +25°C° 0 mm 5 mps 722 mmHg 74%

Tomorrow, 30 September, Wednesday

Time Temperature Precipitation Wind Pressure Humidity
00:00 +23°C° 0 mm 4 mps 722 mmHg 76%
01:00 +22°C° 0 mm 4 mps 721 mmHg 77%
02:00 +22°C° 0 mm 4 mps 721 mmHg 79%
03:00 +22°C° 0 mm 3 mps 721 mmHg 81%
04:00 +21°C° 0 mm 3 mps 721 mmHg 81%
05:00 +21°C° 0 mm 3 mps 721 mmHg 81%
06:00 +21°C° 0 mm 3 mps 721 mmHg 82%
07:00 +25°C° 0 mm 3 mps 722 mmHg 70%
08:00 +29°C° 0 mm 3 mps 722 mmHg 58%
09:00 +33°C° 0 mm 3 mps 723 mmHg 47%
10:00 +35°C° 0 mm 3 mps 722 mmHg 38%
11:00 +38°C° 0 mm 4 mps 722 mmHg 30%
12:00 +42°C° 0 mm 4 mps 722 mmHg 22%
13:00 +42°C° 0 mm 3 mps 721 mmHg 19%
14:00 +43°C° 0 mm 3 mps 721 mmHg 17%
15:00 +44°C° 0 mm 3 mps 720 mmHg 15%
16:00 +40°C° 0 mm 2 mps 720 mmHg 18%
17:00 +37°C° 0 mm 1 mps 719 mmHg 21%
18:00 +35°C° 0 mm 1 mps 718 mmHg 24%
19:00 +33°C° 0 mm 1 mps 719 mmHg 26%
20:00 +32°C° 0 mm 1 mps 719 mmHg 28%
21:00 +31°C° 0 mm 2 mps 720 mmHg 30%
22:00 +30°C° 0 mm 2 mps 720 mmHg 34%
23:00 +29°C° 0 mm 3 mps 720 mmHg 38%

Day after tomorrow, 1 October, Thursday

Time Temperature Precipitation Wind Pressure Humidity
00:00 +28°C° 0 mm 3 mps 720 mmHg 43%
01:00 +27°C° 0 mm 3 mps 720 mmHg 55%
02:00 +25°C° 0 mm 3 mps 720 mmHg 67%
03:00 +24°C° 0 mm 3 mps 720 mmHg 79%
04:00 +24°C° 0 mm 3 mps 720 mmHg 80%
05:00 +22°C° 0 mm 3 mps 720 mmHg 81%
06:00 +23°C° 0 mm 2 mps 720 mmHg 82%
07:00 +27°C° 0 mm 3 mps 720 mmHg 66%
08:00 +30°C° 0 mm 3 mps 721 mmHg 50%
09:00 +35°C° 0 mm 3 mps 722 mmHg 34%
10:00 +37°C° 0 mm 4 mps 721 mmHg 29%
11:00 +41°C° 0 mm 4 mps 721 mmHg 24%
12:00 +43°C° 0 mm 4 mps 720 mmHg 19%
13:00 +44°C° 0 mm 4 mps 720 mmHg 17%
14:00 +44°C° 0 mm 3 mps 719 mmHg 16%
15:00 +44°C° 0 mm 3 mps 719 mmHg 15%
16:00 +41°C° 0 mm 2 mps 718 mmHg 18%
17:00 +39°C° 0 mm 1 mps 718 mmHg 21%
18:00 +33°C° 0 mm 0 mps 717 mmHg 24%
19:00 +34°C° 0 mm 1 mps 718 mmHg 25%
20:00 +33°C° 0 mm 1 mps 718 mmHg 26%
21:00 +32°C° 0 mm 1 mps 719 mmHg 27%
22:00 +32°C° 0 mm 2 mps 719 mmHg 28%
23:00 +31°C° 0 mm 2 mps 719 mmHg 28%

2 October, Friday

Time Temperature Precipitation Wind Pressure Humidity
00:00 +31°C° 0 mm 2 mps 719 mmHg 29%
01:00 +31°C° 0 mm 1 mps 719 mmHg 30%
02:00 +30°C° 0 mm 1 mps 719 mmHg 32%
03:00 +28°C° 0 mm 0 mps 719 mmHg 33%
04:00 +29°C° 0 mm 1 mps 719 mmHg 35%
05:00 +28°C° 0 mm 1 mps 719 mmHg 36%
06:00 +28°C° 0 mm 1 mps 720 mmHg 37%
07:00 +31°C° 0 mm 2 mps 720 mmHg 32%
08:00 +34°C° 0 mm 3 mps 721 mmHg 28%
09:00 +37°C° 0 mm 4 mps 721 mmHg 23%
10:00 +40°C° 0 mm 4 mps 721 mmHg 21%
11:00 +42°C° 0 mm 4 mps 721 mmHg 18%
12:00 +44°C° 0 mm 4 mps 721 mmHg 16%
13:00 +44°C° 0 mm 4 mps 720 mmHg 16%
14:00 +44°C° 0 mm 3 mps 719 mmHg 15%
15:00 +44°C° 0 mm 3 mps 719 mmHg 15%
16:00 +41°C° 0 mm 2 mps 719 mmHg 18%
17:00 +39°C° 0 mm 1 mps 718 mmHg 21%
18:00 +34°C° 0 mm 0 mps 718 mmHg 24%
19:00 +32°C° 0 mm 0 mps 719 mmHg 25%
20:00 +31°C° 0 mm 0 mps 719 mmHg 26%
21:00 +30°C° 0 mm 0 mps 720 mmHg 27%
22:00 +30°C° 0 mm 2 mps 720 mmHg 37%
23:00 +29°C° 0 mm 4 mps 720 mmHg 47%

3 October, Saturday

Time Temperature Precipitation Wind Pressure Humidity
00:00 +28°C° 0 mm 6 mps 720 mmHg 57%
01:00 +27°C° 0 mm 6 mps 720 mmHg 63%
02:00 +24°C° 0 mm 6 mps 720 mmHg 69%
03:00 +23°C° 0 mm 6 mps 720 mmHg 75%
04:00 +23°C° 0 mm 6 mps 721 mmHg 75%
05:00 +23°C° 0 mm 7 mps 721 mmHg 75%
06:00 +23°C° 0 mm 7 mps 721 mmHg 75%
07:00 +26°C° 0 mm 7 mps 722 mmHg 70%
08:00 +27°C° 0 mm 7 mps 723 mmHg 64%
09:00 +29°C° 0 mm 7 mps 723 mmHg 59%
10:00 +30°C° 0 mm 7 mps 723 mmHg 54%
11:00 +33°C° 0 mm 7 mps 723 mmHg 49%
12:00 +35°C° 0 mm 6 mps 723 mmHg 44%
13:00 +35°C° 0 mm 7 mps 722 mmHg 44%
14:00 +35°C° 0 mm 7 mps 721 mmHg 43%
15:00 +35°C° 0 mm 7 mps 721 mmHg 43%
16:00 +32°C° 0 mm 7 mps 721 mmHg 50%
17:00 +29°C° 0 mm 8 mps 721 mmHg 56%
18:00 +26°C° 0 mm 8 mps 721 mmHg 62%
19:00 +24°C° 0 mm 8 mps 722 mmHg 65%
20:00 +23°C° 0 mm 8 mps 722 mmHg 68%
21:00 +22°C° 0 mm 8 mps 722 mmHg 71%
22:00 +22°C° 0 mm 8 mps 723 mmHg 71%
23:00 +22°C° 0 mm 8 mps 723 mmHg 71%

4 October, Sunday

Time Temperature Precipitation Wind Pressure Humidity
00:00 +22°C° 0 mm 8 mps 723 mmHg 70%
01:00 +22°C° 0 mm 8 mps 723 mmHg 71%
02:00 +22°C° 0 mm 8 mps 722 mmHg 72%
03:00 +21°C° 0 mm 7 mps 722 mmHg 73%
04:00 +21°C° 0 mm 7 mps 722 mmHg 74%
05:00 +21°C° 0 mm 7 mps 723 mmHg 75%
06:00 +21°C° 0 mm 7 mps 723 mmHg 75%
07:00 +22°C° 0 mm 7 mps 723 mmHg 70%
08:00 +24°C° 0 mm 7 mps 724 mmHg 65%
09:00 +27°C° 0 mm 7 mps 724 mmHg 59%
10:00 +28°C° 0 mm 6 mps 724 mmHg 55%
11:00 +30°C° 0 mm 6 mps 724 mmHg 50%
12:00 +33°C° 0 mm 5 mps 724 mmHg 46%
13:00 +33°C° 0 mm 5 mps 723 mmHg 45%
14:00 +33°C° 0 mm 5 mps 722 mmHg 44%
15:00 +34°C° 0 mm 5 mps 722 mmHg 44%
16:00 +30°C° 0 mm 6 mps 722 mmHg 51%
17:00 +28°C° 0 mm 7 mps 722 mmHg 59%
18:00 +24°C° 0 mm 7 mps 722 mmHg 66%
19:00 +23°C° 0 mm 7 mps 722 mmHg 68%
20:00 +23°C° 0 mm 7 mps 723 mmHg 70%
21:00 +22°C° 0 mm 7 mps 723 mmHg 72%
22:00 +21°C° 0 mm 7 mps 723 mmHg 74%
23:00 +21°C° 0 mm 7 mps 723 mmHg 76%
Show more